Wind_Speed
32 32 34 34 33 34 36 36 37 34 32 31 34 36 36 37 38 39 40 42 43 45 46 48 50 53 55 58 61 63 66 68 71 74 77 79 81 83 85 87 87 87 85 83
34 35 37 37 34 36 37 37 38 37 35 35 35 36 38 39 40 41 42 44 46 48 49 52 54 57 60 62 65 68 70 73 76 78 81 83 85 86 87 87 85 84 81 79
37 36 39 38 35 36 37 37 38 38 37 37 37 38 39 40 41 43 44 46 48 50 53 55 58 61 63 66 69 72 74 77 80 82 84 86 87 86 85 84 81 79 76 73
40 39 41 38 37 37 38 38 38 38 38 39 39 39 41 41 43 45 47 49 51 53 56 59 62 64 67 70 73 75 78 80 83 85 86 86 85 83 81 79 76 73 70 67
42 43 44 40 39 39 40 39 38 39 39 40 40 41 42 44 46 48 50 52 54 57 59 62 65 68 70 73 76 79 81 82 84 85 85 83 81 78 76 73 70 67 64 61
44 46 46 42 40 40 41 41 38 39 40 41 41 42 44 46 48 50 52 55 57 60 62 65 68 71 73 76 79 81 82 83 83 83 82 79 77 74 71 68 65 61 57 56
44 46 46 43 42 41 41 41 40 40 41 41 42 44 46 48 50 52 55 57 60 62 65 68 71 73 76 79 81 82 83 82 81 80 77 75 72 69 65 62 59 55 53 52
44 46 46 44 44 43 42 42 42 42 42 43 44 46 48 50 52 55 57 60 62 65 67 70 74 76 79 81 82 82 81 80 78 75 73 70 67 63 60 57 54 52 50 48
45 45 45 44 44 44 43 43 43 43 43 44 46 48 50 52 55 57 60 62 65 67 70 73 76 78 80 81 81 80 78 76 74 71 68 64 61 58 55 53 52 50 48 46
45 44 44 44 44 44 44 44 44 44 45 46 48 50 53 55 57 60 62 65 67 70 72 74 76 78 80 80 80 78 75 72 69 66 62 59 57 55 53 51 50 48 46 45
43 43 44 44 44 44 44 44 44 45 47 49 51 53 55 57 60 62 65 67 70 72 74 76 77 78 78 78 77 75 71 68 64 61 58 55 53 51 50 49 48 47 46 45
42 42 43 43 44 45 45 45 46 47 49 51 53 55 58 60 62 65 67 69 72 74 75 76 77 77 76 76 74 71 67 63 60 57 54 52 50 47 46 47 46 46 46 45
42 43 44 44 45 45 45 46 47 49 51 54 56 58 60 62 64 67 69 71 73 75 76 76 76 75 74 72 69 66 63 60 57 54 52 50 48 46 44 43 43 44 45 45
43 44 44 44 45 45 46 47 49 52 54 56 58 60 62 64 66 68 70 72 74 74 75 75 75 73 71 69 65 62 59 56 54 52 50 49 47 45 44 42 40 40 42 43
43 43 44 44 45 46 47 50 52 54 56 58 60 62 64 66 68 69 71 72 73 74 74 74 72 70 67 64 61 58 55 53 51 49 48 48 46 44 43 42 41 40 40 40
42 43 44 45 46 47 49 52 54 56 58 59 61 63 65 67 69 70 71 72 73 73 73 72 69 66 63 60 57 55 52 51 50 48 47 46 44 43 42 41 40 40 39 38
42 43 44 46 48 50 52 54 56 58 59 61 63 65 67 68 69 70 71 72 72 72 71 69 66 62 59 57 54 52 50 48 47 47 46 45 43 41 40 40 39 38 38 38
43 44 46 48 50 52 54 56 58 60 61 63 65 66 67 69 70 71 72 71 70 69 67 65 61 58 55 53 51 49 48 46 45 45 44 43 41 40 39 38 38 38 37 36
45 47 48 50 52 54 56 58 60 61 63 65 66 67 68 69 71 71 71 70 68 66 62 59 56 53 51 50 49 47 46 45 44 43 42 41 40 39 38 37 37 36 35 35
47 49 50 52 54 56 58 60 61 63 64 65 67 67 68 69 70 70 69 67 65 62 58 55 52 50 48 47 46 45 44 43 42 41 40 39 38 37 37 36 36 35 34 34
49 51 53 55 56 58 60 61 63 64 65 66 67 68 69 69 69 68 67 63 60 58 54 52 49 47 45 44 43 43 42 41 40 39 38 37 36 36 35 35 34 33 34 33
51 53 55 56 58 59 60 62 64 65 66 67 68 69 69 68 67 65 63 61 57 54 51 48 46 44 43 42 41 41 40 39 38 37 35 35 35 34 33 33 32 32 32 32
53 55 56 58 59 60 62 63 65 66 66 67 68 69 68 67 65 63 59 56 53 50 47 45 43 42 41 40 40 39 38 37 36 34 34 33 33 33 32 32 31 31 31 32
55 56 58 60 61 62 63 64 65 66 67 68 68 67 66 64 61 59 56 52 49 46 43 42 41 40 39 39 38 37 37 35 34 33 32 32 31 31 31 31 30 30 30 31
57 58 60 61 62 63 64 65 66 66 66 65 64 63 62 60 57 53 50 47 45 43 41 39 39 39 38 38 37 35 35 34 33 31 30 30 30 30 30 30 29 29 29 30
59 60 61 62 63 64 65 65 65 64 63 62 60 58 57 55 53 50 47 44 42 41 39 38 37 37 37 36 35 34 33 32 30 29 29 28 28 28 29 29 28 28 28 28
60 60 61 62 63 64 64 64 63 62 62 60 57 55 54 52 49 47 44 42 40 39 37 37 36 36 35 34 33 32 31 29 28 27 27 27 27 27 27 27 27 27 27 27
Wind_Direction
265 268 271 273 276 278 279 281 283 285 285 284 283 285 287 288 289 290 292 294 296 298 299 300 301 302 302 303 303 303 303 303 304 304 303 303 303 302 302 301 301 300 299 297
266 269 272 274 277 279 279 281 284 285 286 285 284 285 285 286 288 290 292 295 297 298 299 300 301 302 303 303 304 304 304 304 305 305 305 305 304 304 304 303 302 301 300 299
269 270 272 275 277 277 278 281 283 285 286 285 285 285 285 286 289 291 293 295 297 298 300 301 302 303 304 304 305 305 305 306 306 306 306 306 306 306 305 304 304 303 302 300
271 272 273 277 277 278 278 280 282 283 284 284 284 285 286 287 290 292 294 296 298 299 301 302 303 304 305 305 306 306 307 307 307 307 308 308 307 307 306 305 304 304 303 301
273 275 276 276 279 279 279 279 282 283 282 283 284 285 287 289 292 294 296 298 299 301 302 303 304 305 306 306 307 308 308 309 309 309 309 309 308 308 307 306 306 305 304 303
273 276 277 278 277 278 279 280 281 281 282 283 284 286 288 291 293 295 297 299 301 302 303 304 305 306 307 308 308 309 310 310 311 310 310 310 309 309 308 308 307 306 305 304
272 275 277 280 280 280 280 282 281 282 282 283 285 287 290 292 294 296 298 300 302 303 304 305 306 307 308 309 310 311 311 312 311 311 311 311 310 310 309 308 308 307 307 306
271 273 277 278 279 280 280 281 282 283 284 285 287 289 291 294 296 298 300 301 303 305 306 307 308 309 310 311 311 312 312 312 312 312 312 311 311 310 310 309 309 308 308 307
271 273 275 277 277 278 280 281 283 284 285 287 289 291 293 295 298 300 301 303 305 306 307 309 310 310 311 312 312 312 313 313 313 313 313 312 311 311 310 310 310 309 309 309
272 273 274 274 276 277 280 282 283 284 286 288 290 292 295 297 300 302 303 305 306 307 309 310 311 311 312 312 313 313 313 313 313 313 313 312 312 311 311 311 310 310 310 310
271 272 272 274 276 278 280 282 284 286 288 290 292 295 297 299 301 303 304 306 307 308 309 310 311 312 313 313 313 313 314 314 314 314 313 313 312 311 311 311 311 311 311 311
269 270 272 274 277 279 281 283 285 287 289 291 294 297 299 301 302 304 305 306 308 309 310 311 312 313 313 313 313 313 314 314 314 314 314 313 312 311 312 312 312 312 312 313
269 270 272 275 277 280 282 284 286 288 291 294 296 298 300 301 303 304 306 307 308 310 311 312 313 313 313 313 313 314 314 314 314 314 314 314 313 312 312 312 312 312 312 312
269 271 274 276 278 280 282 285 287 290 292 295 297 298 300 302 304 305 307 308 309 311 311 312 313 313 313 313 313 313 313 313 314 314 315 315 314 313 313 313 313 312 312 312
269 272 274 276 278 281 283 286 289 291 293 295 297 299 301 303 305 306 307 308 309 311 312 312 313 313 312 312 312 312 312 312 313 314 314 315 314 313 314 314 315 315 314 313
270 272 274 277 280 283 285 287 290 292 294 296 298 300 301 303 305 306 307 308 310 311 311 311 312 312 311 311 311 311 311 312 313 313 314 315 314 314 314 315 316 317 316 315
271 273 276 279 281 284 286 289 291 293 295 296 298 300 302 303 305 306 307 308 310 310 311 311 311 311 310 310 311 311 311 311 312 313 314 315 315 315 315 316 317 317 317 317
272 275 278 281 283 286 288 290 292 294 295 297 299 300 302 303 305 306 307 309 309 310 310 310 310 309 309 309 310 311 311 312 312 313 314 315 315 315 315 316 317 317 318 318
276 278 281 283 285 287 289 291 292 294 296 298 299 301 302 304 305 307 308 309 309 309 309 308 308 308 308 309 310 310 311 312 312 313 314 315 315 315 315 316 317 318 318 319
279 281 283 285 287 289 290 292 294 296 297 299 300 301 303 304 305 307 308 309 309 308 309 308 308 307 308 309 310 310 311 311 312 313 313 314 314 315 315 316 317 317 318 319
282 283 285 287 289 290 292 293 295 296 298 299 301 302 303 305 306 306 307 308 307 307 308 308 307 307 308 308 309 310 311 312 312 312 313 313 315 315 315 315 316 317 318 319
284 285 287 288 290 291 293 294 296 297 299 300 301 302 303 305 305 306 307 307 306 306 306 306 306 306 307 308 309 310 311 312 312 312 313 314 315 316 316 316 316 317 318 319
285 287 288 290 291 292 294 295 296 298 299 300 302 302 303 304 305 305 305 305 304 305 305 305 305 306 306 308 309 310 312 312 312 312 313 314 316 317 317 317 317 318 318 319
287 289 290 291 292 293 295 296 297 299 300 301 302 302 303 303 304 304 304 304 304 303 304 304 305 306 307 308 309 310 311 312 312 312 313 314 315 316 317 318 318 319 319 320
288 290 291 292 293 294 295 297 298 299 300 301 302 302 303 303 304 304 303 303 303 303 303 303 304 305 307 308 309 310 311 311 312 312 313 315 315 316 318 319 319 320 320 322
289 290 291 292 294 295 296 297 299 300 301 301 302 302 302 302 303 303 303 302 302 302 302 302 303 305 306 307 308 309 310 311 311 312 314 316 316 317 318 319 320 321 322 323
290 291 292 293 294 296 297 298 299 300 301 301 301 301 301 301 301 301 301 301 300 300 300 301 302 304 305 306 307 308 308 309 310 311 314 315 316 317 319 320 321 322 323 324
Height
5746 5745 5744 5745 5745 5743 5741 5740 5739 5740 5739 5738 5733 5730 5728 5725 5722 5718 5715 5712 5708 5704 5700 5696 5691 5686 5680 5674 5667 5660 5652 5644 5636 5628 5618 5609 5599 5589 5578 5568 5557 5546 5536 5527
5738 5737 5735 5736 5738 5735 5733 5732 5730 5729 5729 5727 5724 5722 5719 5716 5712 5709 5706 5702 5698 5694 5689 5684 5679 5673 5666 5659 5652 5644 5636 5627 5618 5608 5598 5587 5577 5566 5554 5543 5532 5522 5511 5502
5729 5729 5727 5728 5730 5727 5726 5724 5722 5720 5720 5717 5715 5712 5709 5706 5703 5699 5696 5692 5687 5682 5677 5671 5665 5659 5652 5644 5636 5627 5618 5608 5598 5587 5577 5565 5554 5542 5530 5519 5509 5499 5489 5479
5718 5719 5717 5722 5720 5719 5716 5715 5713 5711 5709 5707 5705 5702 5699 5696 5692 5689 5685 5680 5675 5670 5664 5658 5651 5644 5636 5628 5619 5609 5599 5589 5577 5566 5555 5543 5531 5519 5508 5497 5487 5478 5469 5460
5708 5707 5707 5711 5710 5708 5706 5705 5705 5702 5699 5697 5694 5691 5688 5685 5681 5677 5673 5668 5663 5657 5650 5643 5636 5628 5620 5611 5601 5591 5580 5569 5556 5544 5533 5521 5510 5498 5487 5477 5468 5459 5450 5442
5698 5696 5696 5701 5700 5698 5696 5695 5695 5691 5688 5686 5684 5681 5678 5674 5670 5665 5660 5655 5649 5643 5636 5628 5620 5612 5603 5593 5583 5572 5561 5549 5536 5523 5511 5500 5489 5479 5468 5458 5450 5442 5434 5426
5688 5686 5686 5689 5688 5686 5687 5686 5683 5680 5678 5676 5673 5670 5667 5662 5658 5653 5648 5642 5635 5629 5621 5612 5603 5595 5585 5575 5564 5552 5541 5529 5516 5504 5492 5481 5471 5461 5451 5442 5434 5427 5420 5413
5679 5677 5679 5678 5677 5676 5675 5673 5671 5669 5667 5665 5662 5658 5654 5650 5645 5640 5634 5628 5621 5613 5605 5595 5586 5577 5567 5557 5546 5534 5523 5511 5499 5487 5475 5463 5454 5445 5436 5427 5420 5413 5407 5401
5670 5670 5668 5667 5665 5664 5663 5662 5660 5658 5656 5653 5650 5646 5642 5637 5632 5626 5620 5613 5605 5597 5589 5579 5568 5558 5548 5538 5526 5516 5504 5493 5481 5471 5459 5448 5439 5430 5423 5414 5407 5400 5394 5388
5658 5658 5657 5655 5654 5653 5652 5650 5648 5646 5644 5641 5637 5633 5629 5624 5618 5612 5605 5597 5589 5581 5572 5563 5552 5540 5529 5519 5508 5497 5487 5476 5465 5455 5446 5436 5426 5417 5410 5402 5395 5388 5382 5376
5646 5646 5645 5644 5643 5642 5641 5639 5637 5635 5632 5628 5624 5620 5615 5610 5603 5596 5589 5581 5573 5564 5556 5546 5535 5524 5512 5501 5490 5480 5471 5460 5450 5441 5432 5424 5416 5407 5398 5391 5382 5376 5370 5364
5636 5635 5634 5634 5632 5631 5629 5627 5625 5622 5619 5615 5611 5606 5601 5595 5588 5581 5573 5565 5557 5548 5539 5529 5518 5507 5496 5484 5474 5464 5455 5446 5437 5428 5419 5411 5404 5397 5389 5380 5373 5365 5358 5352
5624 5624 5623 5623 5621 5620 5618 5615 5613 5609 5606 5601 5597 5591 5586 5580 5573 5566 5558 5549 5540 5531 5522 5512 5501 5491 5480 5469 5459 5449 5440 5431 5423 5415 5407 5399 5391 5385 5379 5373 5364 5356 5348 5342
5613 5613 5612 5611 5610 5608 5606 5603 5600 5596 5592 5588 5583 5577 5571 5565 5558 5550 5542 5533 5524 5515 5505 5495 5485 5475 5464 5455 5445 5436 5427 5419 5411 5404 5396 5388 5380 5373 5367 5361 5356 5349 5341 5333
5603 5602 5601 5600 5598 5596 5594 5590 5587 5583 5579 5574 5568 5562 5556 5549 5542 5534 5526 5516 5508 5499 5489 5479 5469 5460 5450 5440 5432 5424 5415 5407 5400 5393 5385 5377 5370 5363 5357 5350 5344 5338 5332 5325
5592 5591 5590 5588 5586 5584 5581 5578 5574 5570 5565 5560 5554 5548 5541 5534 5526 5518 5510 5500 5491 5482 5473 5463 5454 5445 5436 5427 5419 5412 5404 5396 5388 5381 5374 5367 5360 5353 5347 5341 5334 5328 5322 5316
5580 5579 5578 5576 5574 5571 5568 5564 5560 5555 5550 5545 5539 5533 5526 5518 5511 5503 5494 5485 5475 5466 5456 5447 5439 5430 5422 5414 5407 5400 5393 5386 5378 5371 5364 5357 5350 5344 5337 5331 5325 5319 5313 5307
5569 5567 5566 5563 5560 5557 5554 5549 5545 5540 5535 5529 5523 5516 5509 5501 5494 5486 5478 5469 5460 5451 5441 5431 5424 5416 5409 5401 5394 5388 5381 5374 5368 5361 5354 5347 5341 5335 5328 5323 5317 5311 5305 5299
5556 5554 5552 5550 5546 5543 5539 5534 5530 5525 5519 5513 5506 5500 5493 5485 5476 5469 5461 5452 5443 5436 5429 5419 5411 5403 5397 5390 5383 5376 5370 5364 5357 5351 5344 5338 5332 5326 5320 5314 5308 5302 5297 5291
5543 5541 5538 5535 5531 5527 5523 5518 5513 5508 5502 5496 5489 5483 5476 5469 5460 5452 5444 5437 5427 5418 5412 5405 5398 5392 5385 5379 5372 5366 5359 5353 5347 5341 5335 5329 5323 5317 5311 5306 5300 5295 5289 5283
5529 5527 5523 5520 5517 5512 5507 5502 5497 5492 5486 5479 5472 5466 5459 5452 5444 5435 5427 5421 5414 5404 5398 5392 5385 5379 5374 5368 5362 5355 5349 5343 5337 5331 5325 5320 5314 5309 5303 5298 5292 5287 5282 5276
5515 5512 5509 5505 5501 5497 5492 5486 5480 5475 5469 5463 5455 5448 5441 5435 5427 5420 5412 5404 5398 5392 5386 5379 5373 5368 5362 5357 5351 5345 5339 5333 5328 5322 5316 5311 5306 5301 5295 5290 5285 5280 5274 5269
5500 5497 5493 5489 5485 5481 5476 5470 5464 5458 5452 5445 5438 5430 5423 5417 5409 5403 5398 5391 5383 5378 5372 5367 5361 5356 5351 5346 5340 5335 5329 5324 5318 5313 5308 5303 5298 5293 5288 5283 5277 5272 5267 5262
5485 5481 5477 5473 5468 5464 5459 5454 5448 5441 5435 5428 5421 5412 5405 5399 5394 5387 5380 5375 5370 5365 5360 5355 5350 5345 5340 5335 5330 5325 5320 5315 5310 5305 5300 5295 5290 5285 5280 5275 5270 5265 5260 5255
5469 5465 5461 5456 5451 5446 5441 5436 5431 5425 5418 5411 5405 5396 5388 5382 5377 5372 5367 5361 5357 5352 5348 5343 5339 5334 5330 5325 5320 5315 5311 5306 5301 5296 5292 5288 5283 5278 5274 5269 5264 5259 5254 5249
5453 5449 5444 5439 5433 5428 5423 5418 5413 5407 5400 5395 5389 5382 5375 5368 5362 5358 5353 5349 5344 5340 5336 5332 5328 5324 5319 5315 5311 5306 5302 5297 5293 5289 5285 5280 5276 5272 5267 5262 5257 5253 5248 5243
5436 5431 5427 5422 5417 5410 5405 5400 5394 5389 5383 5377 5372 5367 5361 5355 5350 5345 5341 5337 5333 5329 5325 5321 5317 5313 5309 5305 5301 5297 5293 5289 5285 5281 5278 5274 5269 5265 5261 5256 5252 5247 5242 5238